Location: Possagno
(45.8500°N, 11.8667°E)
Time: 09:53:06
(UTC+00:00)

STARLINK-2691 - Pass Details

Date: 30 July 2021
Orbit: 546 x 548 km, 53.1° (Epoch: 22 September)

Event Time Altitude Azimuth Distance (km) Brightness Sun altitude
Rises 19:50:03 0° 298° (WNW) 2,718 9.0 -10.4°
Reaches altitude 10° 19:52:23 10° 290° (WNW) 1,822 7.5 -10.7°
Maximum altitude 19:56:13 38° 222° (SW) 846 4.6 -11.2°
Enters shadow 19:59:19 14° 158° (SSE) 1,549 5.4 -11.6°
